User: anonymous   Login
Location: Robert Brownlee Observatory
(34.2308°N, 117.2089°W)
Time: 06:32:57
(UTC-07:00)
Language:

Cosmos 1943 - Orbit

View from above orbital plane
View from above orbital plane
View from above satellite
View from above satellite

Ground track
Ground track

The orbit data is extracted from the following two-line orbital elements,

1 19119U 88039A   17117.85241199 -.00000171 +00000-0 -63333-4 0  9998
2 19119 071.0043 207.4851 0009939 143.9010 354.4744 14.15091218494700
Epoch (UTC): 27 April 2017 20:27:28
Eccentricity: 0.0009939
inclination: 71.0043°
perigee height: 835 km
apogee height: 849 km
right ascension of ascending node: 207.4851°
argument of perigee: 143.9010°
revolutions per day: 14.15091218
mean anomaly at epoch: 354.4744°
orbit number at epoch: 49470

The dashed part of the orbit path shows where the satellite is in the earth's shadow,  

DLR